Lapse_Rate
6.9 6.9 6.8 6.8 6.9 7.1 7.1 7.0 7.1 6.6 6.4 6.3 6.3 6.2 6.1 6.0 6.1 6.1 6.0 6.0 5.9 5.7 5.7 5.8 5.8 5.8 5.7 5.8 5.9 5.9 6.0 6.1 6.1 5.7 5.8 6.0 6.3 6.3 6.1 5.9 5.7 5.6 6.0
7.2 7.0 6.6 6.6 6.8 6.9 6.9 6.8 6.7 6.7 6.6 6.5 6.4 6.2 6.0 6.0 5.9 5.9 6.0 6.0 6.0 5.8 5.8 5.8 5.7 5.6 5.7 5.7 5.7 5.7 5.7 5.7 5.7 5.9 5.8 5.7 6.0 6.2 6.3 5.9 5.7 5.6 5.6
6.9 6.6 6.5 6.4 6.4 6.5 6.8 6.9 6.7 6.5 6.4 6.4 6.4 6.2 5.9 5.9 5.8 5.8 5.9 5.8 5.9 5.9 5.8 5.8 5.7 5.8 5.9 5.8 5.6 5.6 5.5 5.5 5.7 6.0 5.9 6.0 5.8 5.7 6.2 6.5 6.2 6.0 6.2
6.7 6.6 6.9 7.0 6.9 6.7 6.6 6.8 6.8 6.7 6.5 6.3 6.1 6.0 6.0 5.9 5.8 5.8 5.8 5.8 5.7 5.6 5.6 5.5 5.5 5.5 5.6 5.6 5.5 5.7 5.5 5.7 5.6 5.7 5.8 5.6 5.9 5.7 5.7 5.9 5.9 6.1 6.4
6.9 6.9 6.8 6.8 6.7 6.7 6.6 6.6 6.6 6.6 6.5 6.5 6.4 6.3 6.1 6.0 6.0 5.9 5.9 6.0 6.0 5.7 5.7 5.6 5.6 5.6 5.6 5.6 5.4 5.3 5.4 5.5 5.6 5.6 5.7 5.8 5.8 5.7 5.7 5.5 5.9 5.8 6.1
7.0 6.9 6.6 6.5 6.6 6.5 6.7 6.8 6.7 6.5 6.3 6.2 6.2 6.2 6.1 6.1 6.4 6.3 6.1 6.1 6.1 6.1 6.1 5.9 5.8 5.7 5.5 5.6 5.6 5.6 5.7 5.6 5.6 5.6 5.7 5.7 5.9 5.7 5.6 5.5 5.7 5.8 6.1
7.0 6.8 6.6 6.6 6.5 6.5 6.4 6.5 6.6 6.7 6.7 6.6 6.4 6.1 6.0 5.9 5.9 6.0 6.1 6.2 6.2 6.1 6.0 5.9 5.8 5.7 5.7 5.7 5.8 5.8 5.8 5.8 5.8 5.8 5.8 5.7 5.8 5.8 5.8 5.6 5.7 5.8 6.1
6.9 6.6 6.5 6.5 6.5 6.5 6.6 6.6 6.7 6.6 6.5 6.5 6.5 6.3 6.1 6.1 6.1 6.2 6.4 6.3 6.3 6.3 6.1 6.0 6.1 6.0 5.9 5.7 5.7 5.8 5.7 5.7 5.7 5.8 6.0 6.0 6.0 6.0 5.9 5.8 5.7 5.7 5.8
6.8 6.8 6.7 6.6 6.7 6.7 6.6 6.8 6.7 6.6 6.5 6.3 6.3 6.3 6.2 6.0 6.1 6.3 6.3 6.3 6.3 6.3 6.2 6.1 6.0 6.1 6.1 6.1 6.2 6.1 6.1 5.9 5.8 5.7 5.8 5.8 5.8 6.0 6.0 6.0 6.0 5.8 5.7
6.6 6.6 6.6 6.7 6.7 6.7 6.8 6.8 6.7 6.5 6.3 6.2 6.2 6.2 6.2 6.2 6.1 6.1 6.1 6.1 6.0 5.9 5.8 6.0 6.0 6.0 6.1 6.1 6.0 6.1 6.2 6.1 6.0 5.9 5.8 5.9 5.9 5.9 5.8 5.8 5.9 5.9 5.9
6.6 6.5 6.5 6.6 6.7 6.8 6.7 6.6 6.4 6.2 6.1 6.1 6.0 6.1 6.1 6.2 6.2 6.2 6.1 6.2 6.3 6.2 6.2 6.1 6.0 6.0 6.0 5.9 5.8 5.9 6.0 6.1 6.0 6.0 6.1 6.1 5.8 5.6 5.6 5.3 5.2 5.5 5.6
6.6 6.6 6.6 6.8 6.9 6.8 6.7 6.5 6.4 6.3 6.3 6.4 6.4 6.4 6.4 6.3 6.3 6.2 6.2 6.2 6.3 6.5 6.4 6.4 6.2 6.0 6.1 6.1 5.9 5.9 6.0 6.0 6.0 6.0 6.0 5.9 5.9 5.7 5.5 5.3 4.8 4.8 5.1
6.9 6.9 7.0 6.9 6.8 6.6 6.3 6.1 6.2 6.2 6.4 6.4 6.4 6.5 6.5 6.6 6.6 6.5 6.4 6.5 6.5 6.5 6.5 6.5 6.3 6.1 6.1 6.0 5.9 5.9 5.9 5.8 5.8 5.9 6.0 5.9 5.5 5.4 5.4 5.3 5.4 5.5 5.3
6.9 7.0 7.0 6.9 6.5 6.4 6.3 6.1 6.2 6.2 6.2 6.2 6.2 6.3 6.3 6.2 6.3 6.4 6.4 6.4 6.4 6.4 6.4 6.4 6.3 6.3 6.1 6.0 5.8 5.7 5.7 5.6 5.4 5.4 5.3 5.4 5.5 5.6 5.6 5.5 5.6 5.5 5.5
7.0 6.9 6.9 6.7 6.5 6.3 6.3 6.3 6.2 6.2 6.1 6.1 6.2 6.2 6.1 6.1 6.2 6.3 6.2 6.1 6.1 6.0 5.9 5.9 5.9 6.0 6.0 6.0 5.9 5.8 5.6 5.5 5.3 5.1 5.1 5.3 5.2 5.3 5.6 5.6 5.6 5.7 5.7
7.1 7.0 7.0 6.9 6.6 6.5 6.4 6.2 6.1 6.1 6.2 6.2 6.1 6.1 6.2 6.2 6.2 6.2 6.2 6.2 6.2 6.1 6.1 6.1 6.1 6.0 6.0 6.0 5.8 5.8 5.7 5.6 5.4 5.5 5.5 5.5 5.3 5.3 5.4 5.5 5.6 5.7 5.7
7.1 7.0 6.7 6.6 6.3 6.3 6.2 6.1 6.0 6.1 6.2 6.2 6.0 6.0 6.0 6.0 6.0 6.1 6.2 6.1 6.1 6.0 6.0 6.1 6.1 6.1 6.2 6.2 6.0 5.9 5.9 5.7 5.6 5.6 5.6 5.4 5.2 5.1 5.1 5.0 5.2 5.6 5.7
6.9 6.8 6.6 6.4 6.2 6.1 6.0 5.8 5.8 6.1 6.2 6.3 5.7 5.9 6.2 5.9 5.8 5.7 5.7 5.7 5.7 5.7 5.7 5.7 5.8 5.9 6.0 6.0 5.9 5.8 5.4 5.4 5.4 5.4 5.4 5.2 5.0 4.8 4.8 4.8 5.2 5.5 5.7
6.8 6.6 6.3 6.1 6.2 6.1 6.0 5.6 5.8 6.1 6.2 6.1 6.0 5.7 5.6 5.6 5.5 5.5 5.6 5.6 5.6 5.7 5.6 5.6 5.7 5.7 5.6 5.4 5.4 5.5 5.5 5.5 5.3 5.2 5.2 5.0 5.1 4.9 5.0 4.9 5.1 5.3 5.3
6.5 6.7 6.6 6.3 6.0 5.8 5.8 5.5 5.9 5.9 5.8 5.8 5.8 5.5 5.2 5.3 5.4 5.5 5.6 5.6 5.8 5.8 5.8 5.8 5.7 5.7 5.5 5.4 5.5 5.4 5.3 5.3 5.3 5.1 4.8 4.7 4.8 4.8 4.9 4.9 5.2 5.3 5.3
6.2 6.2 6.3 6.2 5.9 5.7 5.9 5.7 5.7 5.4 5.3 5.2 5.2 5.3 5.4 5.4 5.1 5.6 5.7 5.8 5.9 5.9 5.8 5.9 5.9 5.9 5.8 5.6 5.5 5.4 5.3 5.2 5.1 4.9 4.6 4.5 4.4 4.6 4.5 4.7 5.0 5.2 5.4
6.1 6.0 6.0 5.7 5.5 5.8 5.6 5.5 5.6 5.2 5.0 5.1 5.2 5.4 5.5 5.7 5.3 5.6 5.8 5.8 5.9 5.9 5.9 6.0 5.9 5.9 5.9 5.8 5.6 5.4 5.4 5.3 5.1 4.9 4.9 5.0 4.9 4.9 4.4 4.5 4.5 5.0 5.2
5.6 5.5 5.5 5.6 5.2 5.1 5.2 5.4 5.2 4.9 4.8 5.1 5.2 5.3 5.5 5.7 5.5 5.6 5.6 5.7 5.8 5.8 6.0 6.0 5.9 5.8 5.8 5.7 5.7 5.6 5.5 5.4 5.2 5.1 5.1 5.0 5.1 5.0 5.0 4.4 4.4 4.8 5.1
5.4 5.4 5.2 5.5 5.3 5.1 5.3 5.3 5.3 4.9 4.8 5.0 5.1 4.8 5.3 5.7 5.7 5.9 5.9 6.0 6.1 6.1 6.0 5.9 5.9 5.8 5.8 5.7 5.6 5.5 5.5 5.4 5.3 5.2 5.2 5.2 5.2 5.2 5.0 4.6 4.4 4.6 4.4
5.1 5.1 5.2 5.4 5.0 4.9 4.6 4.3 4.1 4.0 4.3 4.7 5.0 4.7 5.1 5.6 5.7 5.9 6.1 6.1 6.2 6.3 6.3 6.2 6.1 5.9 5.8 5.7 5.6 5.5 5.4 5.3 5.4 5.4 5.2 5.1 5.1 5.2 5.2 5.0 4.9 4.8 4.7
4.7 4.8 4.8 4.9 4.6 4.2 4.1 4.1 4.1 4.6 4.5 4.4 4.7 5.0 5.4 5.7 5.9 6.0 6.2 6.1 6.0 6.2 6.2 6.2 6.1 6.1 6.0 5.9 5.8 5.7 5.6 5.4 5.3 5.3 5.3 5.2 5.2 5.0 5.1 5.2 5.2 5.1 5.1
Wind_Speed
4 3 4 4 4 4 1 2 2 1 2 3 4 5 6 6 6 5 6 6 6 5 5 6 7 5 3 3 4 4 4 4 4 3 2 4 3 5 6 12 12 12 15
5 5 5 3 3 4 4 6 4 3 3 2 2 3 4 4 5 6 6 6 6 6 7 5 7 4 6 5 4 6 5 4 4 6 3 3 6 3 4 7 4 8 9
6 6 5 6 6 5 5 5 6 6 6 6 4 2 2 3 4 4 5 6 6 6 6 6 7 6 6 4 5 5 4 4 4 4 4 2 3 2 3 4 5 6 11
7 7 7 6 6 6 6 6 6 5 5 6 5 5 5 4 3 5 5 5 6 5 5 6 6 6 6 6 5 6 5 5 3 3 3 4 4 3 3 4 5 3 6
7 7 6 5 6 6 6 5 5 5 4 4 5 5 5 4 3 5 6 4 2 3 4 4 5 6 8 7 4 6 5 4 4 4 3 2 3 3 4 2 4 4 4
7 7 5 5 5 4 5 6 6 6 6 6 6 5 6 4 10 10 8 5 4 3 3 4 5 6 6 8 8 11 8 6 7 4 8 4 7 4 4 4 3 2 4
7 6 5 6 6 6 6 6 6 5 5 6 6 6 6 5 7 6 8 5 5 5 5 5 5 4 7 6 8 9 8 10 13 8 8 8 8 6 5 6 5 5 5
7 7 6 6 5 5 6 5 4 4 4 4 4 5 5 4 7 8 7 4 3 5 5 6 6 6 6 7 6 6 6 6 6 5 8 10 8 9 7 6 7 5 4
7 6 5 5 4 4 4 3 2 3 3 3 3 5 4 5 8 10 6 4 4 6 5 6 6 6 6 10 6 5 6 5 8 14 13 13 15 13 9 1 4 4 6
7 6 5 5 4 3 2 1 1 2 3 4 6 5 6 7 15 16 11 4 5 5 6 6 8 8 10 7 5 4 5 6 6 7 6 6 8 8 13 8 5 6 7
6 6 5 4 5 2 0 1 4 4 5 4 4 5 10 7 9 13 14 6 5 5 4 4 2 6 11 11 6 5 6 6 8 5 6 7 7 7 6 6 8 7 6
7 6 4 3 3 3 5 5 4 5 5 5 5 5 4 5 10 11 10 9 10 6 7 6 4 9 11 12 9 10 11 9 4 5 4 6 6 7 7 8 8 8 9
6 5 3 2 3 3 4 3 2 2 4 4 3 4 3 5 6 14 13 13 9 6 5 9 15 14 13 9 9 13 12 4 4 4 5 6 6 6 6 5 7 8 10
6 4 2 2 2 3 3 1 1 3 3 3 3 3 3 4 4 5 6 7 11 9 11 8 11 12 11 9 8 7 6 5 5 5 6 6 5 3 4 4 5 5 5
5 3 3 3 4 3 1 2 1 1 3 3 3 3 2 3 3 5 6 5 5 6 6 3 4 7 8 8 8 7 7 6 6 5 5 6 6 6 6 4 4 6 7
4 3 3 3 1 2 1 2 4 2 4 9 7 4 2 4 3 9 10 10 12 10 3 5 6 6 7 8 7 8 7 11 8 9 7 6 7 7 7 6 4 6 8
3 2 1 3 3 3 3 3 1 6 10 4 7 5 7 6 6 7 8 9 9 8 7 6 6 6 7 7 7 8 8 8 10 9 8 9 9 8 7 7 7 7 9
3 5 3 3 4 4 4 4 4 5 4 3 4 2 6 6 7 7 8 5 5 6 5 5 6 7 6 6 7 7 8 8 8 8 8 8 8 9 9 8 8 9 9
2 3 3 1 2 2 2 1 1 5 4 3 2 3 2 5 5 5 4 3 3 4 5 5 5 5 5 5 6 7 7 7 8 8 8 8 8 8 9 9 9 13 11
2 7 4 2 2 2 2 3 4 4 3 4 4 3 1 1 1 2 1 1 1 1 1 2 3 3 4 4 4 5 6 8 8 8 8 8 8 8 8 9 9 9 10
2 3 5 3 3 2 2 3 3 3 3 4 4 4 7 3 3 3 2 2 3 2 2 2 3 3 3 4 4 4 5 6 6 8 8 7 8 8 8 8 9 9 9
3 3 4 4 2 2 1 3 4 3 2 4 4 3 8 3 4 4 4 4 4 4 4 4 4 4 4 3 4 4 5 6 6 7 8 8 8 8 8 8 9 8 8
3 4 4 3 3 3 3 3 4 4 4 5 4 4 4 4 5 5 5 5 4 4 4 3 4 5 5 5 4 4 4 5 5 6 7 8 8 8 9 9 9 9 9
2 5 5 5 4 4 4 4 4 6 5 4 4 5 5 4 5 6 5 5 4 4 5 4 4 6 5 5 4 7 8 6 6 7 7 6 7 9 9 10 10 12 10
4 4 5 6 5 5 5 5 5 5 6 5 5 5 5 4 5 5 5 4 4 4 5 5 5 6 7 6 4 7 10 9 8 8 7 6 8 11 9 8 10 10 11
4 3 4 4 4 5 5 5 5 6 5 4 5 5 5 5 5 5 5 5 5 5 5 4 6 4 4 4 5 9 10 10 10 10 8 5 6 7 7 10 13 9 10
Wind_Direction
171 252 197 175 183 199 220 184 120 66 120 174 195 198 209 217 228 218 224 228 222 234 244 232 246 232 254 234 213 216 225 194 233 284 246 252 261 232 253 240 241 238 246
149 145 133 107 84 79 75 67 53 46 33 89 171 193 206 213 220 211 223 226 217 229 244 241 245 233 239 236 200 221 225 204 198 254 253 249 231 251 265 296 283 265 273
122 109 107 87 91 78 66 57 54 53 41 33 36 360 286 263 259 249 230 234 234 228 223 228 243 246 252 245 249 241 225 219 201 209 254 250 259 238 289 260 260 260 253
112 102 101 93 86 78 69 60 57 54 46 34 29 24 21 352 320 295 265 247 241 244 242 231 236 237 243 242 244 247 252 250 213 213 236 245 241 239 214 256 289 243 272
111 105 104 99 85 73 57 42 32 30 24 22 17 11 8 12 38 22 23 11 316 293 290 280 264 255 244 241 232 259 234 247 257 246 237 241 229 231 221 226 237 266 274
112 114 114 92 79 66 48 35 31 19 16 22 13 5 358 349 19 19 6 341 329 320 305 310 312 307 296 280 262 255 241 244 249 247 262 227 248 230 209 223 234 249 287
119 119 98 80 63 54 56 49 33 28 23 19 17 23 22 50 30 26 17 12 339 316 300 294 297 284 297 292 287 281 275 242 238 245 248 251 263 219 237 250 228 213 232
99 96 94 91 79 55 49 36 16 12 16 10 10 354 346 331 343 356 357 352 333 315 304 292 279 283 283 277 297 306 297 288 265 241 233 251 248 262 207 227 243 255 269
110 105 103 101 99 79 51 18 14 8 336 333 317 328 335 320 343 23 31 15 350 334 311 298 289 289 349 39 12 351 331 304 292 281 262 256 254 247 245 195 243 244 273
131 124 116 119 109 82 83 59 278 295 327 336 322 312 296 49 38 31 18 28 11 354 334 335 356 56 2 13 352 312 301 283 293 300 303 290 257 263 243 208 230 240 246
116 116 106 100 113 106 87 270 11 5 340 349 357 15 65 65 48 35 27 23 359 334 323 321 357 10 338 320 288 272 254 275 283 266 270 279 273 253 244 219 209 213 230
106 103 102 96 77 70 62 41 36 33 35 17 19 22 26 62 38 20 20 7 340 330 316 317 310 323 305 293 300 282 273 273 250 249 245 254 251 256 252 246 238 223 230
107 112 140 92 119 124 67 42 32 49 53 16 5 25 19 19 15 7 357 350 342 328 305 304 302 304 303 303 292 301 303 283 267 268 267 259 252 247 246 254 257 258 255
127 161 173 161 197 116 113 27 83 71 74 61 49 39 22 8 10 352 341 334 338 338 334 324 316 306 295 285 314 321 316 300 281 278 283 282 272 259 247 233 245 250 261
134 109 102 106 122 118 107 138 158 240 165 156 150 122 64 24 352 326 336 347 335 321 319 326 354 1 1 358 350 343 334 333 335 324 310 291 282 271 256 247 241 255 255
111 136 130 143 187 186 182 308 20 1 102 101 118 132 87 105 61 25 1 358 350 353 13 22 15 8 5 355 352 345 347 348 340 333 322 301 296 289 284 275 244 243 265
135 150 185 203 216 234 215 214 212 25 52 51 113 103 99 139 59 28 14 1 357 23 41 26 14 4 3 358 353 347 340 341 336 340 332 332 331 310 273 270 270 263 267
207 259 188 228 225 223 248 221 186 167 155 191 269 271 142 121 76 47 22 1 15 27 28 18 10 4 360 355 351 345 341 337 340 336 335 338 332 329 322 317 299 282 276
168 255 235 289 268 196 189 177 163 157 172 160 176 291 163 161 90 44 25 54 12 13 27 33 16 8 357 353 347 346 341 334 334 332 335 331 330 330 324 319 319 312 291
235 241 162 162 110 90 78 62 90 126 157 172 164 212 225 88 22 332 325 326 10 346 14 16 341 324 325 324 335 337 339 342 338 338 332 327 327 322 319 318 311 312 312
145 134 143 128 139 103 97 84 141 146 150 168 197 215 198 160 200 223 250 258 267 270 218 227 259 282 283 294 298 312 321 324 336 335 328 325 322 320 315 315 314 317 317
122 194 163 176 159 126 115 99 140 141 153 163 204 234 214 214 205 218 238 249 248 250 236 230 259 263 277 277 298 303 315 324 336 336 327 324 321 319 319 321 319 321 320
143 160 191 183 175 162 117 138 159 177 187 191 190 204 194 200 202 213 230 252 266 272 260 229 247 273 272 265 273 286 303 313 321 317 312 317 318 319 321 319 321 319 320
182 167 195 200 185 192 183 176 187 197 198 204 199 212 211 205 203 221 228 250 262 276 280 259 238 250 273 249 257 305 313 304 309 304 310 300 310 317 326 322 326 327 323
201 210 217 204 201 205 214 203 198 212 197 200 205 211 220 216 216 225 230 224 241 263 283 276 270 259 272 197 254 313 324 310 305 310 308 292 294 306 311 314 318 316 315
192 248 210 201 204 209 212 219 209 208 221 217 214 214 216 227 226 224 222 214 231 254 271 282 301 295 199 214 300 324 333 336 333 325 304 300 306 311 318 316 314 316 313